Date,TemperatureHighF,TemperatureAvgF,TemperatureLowF,DewpointHighF,DewpointAvgF,DewpointLowF,HumidityHigh,HumidityAvg,HumidityLow,PressureMaxIn,PressureMinIn,WindSpeedMaxMPH,WindSpeedAvgMPH,GustSpeedMaxMPH,PrecipitationSumIn
2013-1-1,24,19,11,20,16,8,94,87,79,30.20,30.05,11,6,18,0.02
2013-1-2,32,21,11,26,17,7,92,85,74,30.16,30.02,17,8,19,0.00
2013-1-3,32,24,18,24,20,16,94,84,69,30.32,30.16,14,6,14,0.01
2013-1-4,39,27,17,27,20,13,88,75,57,30.25,30.03,21,10,21,0.01
2013-1-5,39,35,32,30,28,25,85,77,70,30.03,29.92,31,16,32,0.01
2013-1-6,47,34,21,27,22,16,81,64,45,30.24,30.02,29,8,29,0.00
2013-1-7,50,40,33,27,25,22,65,54,38,30.02,29.79,36,19,39,0.00
2013-1-8,54,41,34,33,29,25,76,63,41,30.03,29.72,33,15,36,0.00
2013-1-9,53,39,27,34,29,23,89,70,45,30.28,30.03,19,4,19,0.00
2013-1-10,46,42,38,46,41,31,100,95,72,30.10,29.51,19,6,19,0.44
2013-1-11,57,48,34,46,41,18,100,79,27,29.69,29.26,39,20,43,0.01
2013-1-12,34,24,16,27,14,8,74,63,52,30.03,29.69,31,9,31,0.00
2013-1-13,27,18,10,9,6,3,75,60,42,30.25,30.02,20,7,21,0.00
2013-1-14,30,19,11,13,8,5,79,64,38,30.38,30.22,8,2,8,0.00
2013-1-15,23,19,18,12,11,10,74,70,59,30.23,30.18,6,2,6,0.00
2013-1-16,55,35,20,32,23,13,80,63,39,30.10,29.87,19,8,21,0.00
2013-1-17,56,40,26,32,27,23,87,64,33,30.33,30.10,21,6,21,0.00
2013-1-18,61,46,35,32,29,27,73,54,28,30.17,29.80,41,20,41,0.00
2013-1-19,62,46,32,32,27,22,79,51,23,30.08,29.77,24,12,24,0.00
2013-1-20,39,29,19,27,18,8,80,63,39,30.29,30.08,20,8,20,0.00
2013-1-21,37,23,15,17,12,8,81,65,40,30.30,30.14,18,6,19,0.00
2013-1-22,38,19,12,16,9,7,79,66,40,30.19,30.06,18,7,18,0.00
2013-1-23,46,31,21,27,19,13,75,61,41,30.25,30.00,24,9,24,0.00
2013-1-24,29,21,13,17,8,1,77,59,31,30.32,30.02,20,9,20,0.00
2013-1-25,28,24,20,17,14,12,77,68,60,30.08,30.01,13,3,13,0.00
2013-1-26,59,46,34,39,27,18,86,49,20,30.05,29.78,23,9,31,0.02
2013-1-27,65,49,41,54,44,37,100,85,56,29.77,29.46,31,15,41,0.01
2013-1-28,73,55,36,59,46,36,100,75,29,29.64,29.35,29,15,42,0.01
2013-1-29,64,38,32,59,34,30,99,87,66,29.51,29.33,26,12,35,0.00
2013-1-30,32,30,22,32,29,22,100,99,96,29.75,29.51,34,17,35,0.00
2013-1-31,24,18,12,18,10,3,83,68,54,30.34,29.78,22,8,26,0.00
2013-2-1,35,20,9,20,10,3,78,64,45,30.31,29.97,33,10,33,0.00
2013-2-2,53,37,26,35,28,20,89,69,43,30.09,29.97,21,10,22,0.10
2013-2-3,54,42,32,30,25,21,72,54,28,30.10,29.60,31,10,31,0.00
2013-2-4,49,39,28,31,29,24,85,66,47,29.83,29.58,28,9,29,0.00
2013-2-5,60,41,28,32,28,24,86,63,28,29.88,29.73,20,8,20,0.00
2013-2-6,60,45,35,52,37,27,97,73,45,29.86,29.62,36,15,37,0.00
2013-2-7,55,47,32,54,40,28,99,77,39,30.07,29.61,26,11,28,0.87
2013-2-8,40,31,27,35,29,26,100,91,75,30.20,29.96,24,6,24,0.00
2013-2-9,50,39,34,41,35,31,97,83,67,29.96,29.41,34,14,34,0.02
2013-2-10,46,40,33,46,31,23,99,70,51,29.84,29.22,47,22,48,0.01
2013-2-11,44,35,28,23,19,17,71,55,35,30.07,29.84,24,8,25,0.00
2013-2-12,41,34,28,26,23,18,85,64,47,30.02,29.81,14,5,16,0.00
2013-2-13,56,38,24,27,23,18,89,59,26,29.82,29.67,27,10,27,0.00
2013-2-14,47,38,28,32,26,18,81,63,37,30.16,29.72,32,10,32,0.00
2013-2-15,41,29,18,19,16,11,85,61,37,30.29,30.15,29,8,29,0.00
2013-2-16,50,29,15,28,17,10,82,63,31,30.23,29.83,34,9,35,0.00
2013-2-17,67,47,27,33,28,23,86,53,22,29.83,29.30,31,11,33,0.00
2013-2-18,53,44,26,32,26,16,68,50,36,29.99,29.21,43,17,43,0.00
2013-2-19,38,29,22,18,13,3,73,54,30,30.21,29.99,18,8,19,0.00
2013-2-20,27,23,20,24,13,3,93,67,41,30.15,29.91,22,12,24,0.00
2013-2-21,24,21,16,21,19,13,94,91,74,29.92,29.61,22,12,24,0.00
2013-2-22,23,15,11,18,12,8,92,86,79,29.99,29.76,17,8,18,0.04
2013-2-23,33,20,8,28,16,5,88,83,76,29.97,29.76,21,7,21,0.03
2013-2-24,38,30,20,30,24,15,86,75,66,29.79,29.68,20,11,22,0.01
2013-2-25,35,33,30,33,31,27,100,93,81,29.79,29.62,30,16,30,0.13
2013-2-26,36,30,26,28,26,23,93,84,69,29.79,29.61,21,10,25,0.09
2013-2-27,39,31,26,28,26,22,94,82,55,30.01,29.78,28,11,28,0.03
2013-2-28,36,32,27,27,25,23,85,76,65,30.09,30.00,19,8,20,0.00
2013-3-1,34,29,23,25,22,16,81,73,58,30.22,30.07,22,8,22,0.00
2013-3-2,37,27,16,26,20,13,89,77,58,30.24,29.96,14,4,14,0.00
2013-3-3,46,38,30,36,30,24,81,75,67,29.96,29.44,19,9,20,0.00
2013-3-4,44,38,32,36,32,26,93,80,66,29.91,29.42,30,11,31,0.03
2013-3-5,42,33,26,26,17,12,65,54,37,30.24,29.91,32,14,36,0.00
2013-3-6,44,32,19,25,20,14,82,63,39,30.29,30.00,21,7,21,0.00
2013-3-7,64,45,30,31,26,23,79,52,25,30.00,29.81,28,13,30,0.00
2013-3-8,63,51,41,48,38,30,77,62,52,29.86,29.63,30,15,30,0.00
2013-3-9,61,54,40,56,50,37,98,89,73,29.63,29.32,39,16,39,0.23
2013-3-10,40,29,25,37,26,18,96,88,76,29.91,29.43,30,15,31,98.94
2013-3-11,43,30,16,29,19,12,81,63,40,29.90,29.80,20,8,21,100.01
2013-3-12,48,40,32,30,21,12,80,49,26,30.21,29.88,32,9,33,0.00
2013-3-13,55,39,24,32,24,15,79,57,31,30.29,30.00,29,8,29,0.00
2013-3-14,74,56,42,40,35,27,74,49,25,30.02,29.83,28,11,30,0.00
2013-3-15,73,54,47,43,39,36,74,58,27,29.83,29.61,21,12,22,0.00
2013-3-16,53,41,32,43,32,26,86,71,58,29.90,29.55,23,16,32,0.00
2013-3-17,40,34,30,34,30,25,96,83,73,29.88,29.55,15,8,20,0.01
2013-3-18,56,43,33,36,27,18,98,61,23,29.91,29.60,27,9,31,0.01
2013-3-19,36,30,28,20,18,15,63,59,51,30.00,29.90,12,5,13,0.00
2013-3-20,46,35,24,32,18,13,86,54,28,30.29,29.85,16,7,20,0.00
2013-3-21,47,37,30,27,18,10,87,48,26,29.85,29.57,32,16,33,0.00
2013-3-22,43,34,28,32,29,26,96,83,62,29.83,29.73,18,7,18,0.00
2013-3-23,33,32,29,32,30,28,100,94,88,29.86,29.74,33,13,33,0.02
2013-3-24,34,28,23,28,23,16,99,81,60,30.05,29.85,31,15,31,0.05
2013-3-25,33,27,22,19,17,15,78,66,48,30.25,30.05,29,12,30,0.00
2013-3-26,43,30,16,28,20,13,86,67,46,30.29,30.03,20,6,20,0.00
2013-3-27,57,43,32,34,28,24,77,56,34,30.04,29.90,27,8,27,0.00
2013-3-28,66,48,31,40,33,27,88,61,29,30.01,29.88,15,5,15,0.00
2013-3-29,71,55,42,52,45,38,86,70,41,29.97,29.79,24,9,24,0.00
2013-3-30,58,54,54,54,50,50,90,86,84,29.80,29.73,36,11,36,0.20
2013-3-31,66,54,43,47,37,26,93,59,23,29.85,29.73,19,7,21,0.05
2013-4-1,51,39,31,37,24,15,83,56,32,30.15,29.75,27,13,27,0.00
2013-4-2,50,40,32,29,22,16,65,50,28,30.16,30.04,20,6,20,0.00
2013-4-3,44,40,35,31,28,20,77,64,41,30.18,30.08,21,4,21,0.00
2013-4-4,48,40,36,36,33,30,89,76,60,30.08,30.02,11,4,12,0.00
2013-4-5,67,54,39,43,40,35,89,61,33,29.94,29.51,33,16,46,0.00
2013-4-6,76,63,54,47,42,36,74,50,25,29.62,29.41,36,17,48,0.00
2013-4-7,75,62,51,57,47,36,93,59,28,29.62,29.40,32,11,32,0.00
2013-4-8,76,64,58,60,58,56,97,84,50,29.45,29.33,28,11,28,0.00
2013-4-9,72,56,31,61,52,30,96,85,62,29.80,29.27,33,15,35,0.66
2013-4-10,31,30,28,30,28,26,96,94,91,29.89,29.69,0,0,0,0.01
2013-4-11,46,34,26,31,27,23,95,75,50,29.79,29.59,19,4,26,0.05
2013-4-12,56,41,29,34,28,24,82,64,39,29.86,29.70,20,8,22,0.00
2013-4-13,68,54,36,51,39,30,80,60,42,29.87,29.30,36,11,42,0.00
2013-4-14,70,62,50,52,39,23,65,45,19,29.55,29.15,52,22,53,0.00
2013-4-15,53,47,40,38,28,22,76,49,34,29.83,29.52,22,11,24,0.01
2013-4-16,46,42,37,36,30,26,82,62,49,29.97,29.77,27,14,27,0.00
2013-4-17,44,42,38,44,40,36,100,96,82,29.88,29.55,28,10,30,0.83
2013-4-18,39,35,31,38,30,24,99,81,62,29.90,29.59,34,17,35,0.08
2013-4-19,57,42,28,33,27,22,80,58,33,29.92,29.83,27,11,27,0.00
2013-4-20,55,39,32,35,28,26,80,66,44,29.96,29.90,27,10,27,0.00
2013-4-21,68,58,49,44,40,37,67,51,37,29.91,29.81,31,16,42,0.00
2013-4-22,59,50,34,52,43,32,92,79,61,30.00,29.69,33,12,36,0.19
2013-4-23,34,32,29,32,30,28,100,93,84,30.12,29.93,32,13,32,0.13
2013-4-24,58,41,25,34,29,22,90,66,32,30.12,29.97,26,8,26,0.02
2013-4-25,70,53,37,42,35,28,75,52,23,30.10,29.84,32,9,33,0.00
2013-4-26,58,52,48,50,46,38,100,82,50,29.98,29.84,29,11,31,0.11
2013-4-27,66,55,49,53,50,49,100,86,58,29.98,29.79,13,4,13,0.00
2013-4-28,80,63,48,57,52,47,98,71,36,29.80,29.49,32,14,32,0.00
2013-4-29,86,71,54,59,54,48,87,59,31,29.55,29.30,38,14,38,0.00
2013-4-30,84,73,63,60,56,50,74,55,38,29.49,29.34,45,21,47,0.00
2013-5-1,67,49,36,54,43,34,96,81,61,30.19,29.49,39,17,39,0.69
2013-5-2,51,39,33,36,32,21,99,80,35,30.36,30.15,37,17,37,0.54
2013-5-3,57,44,32,31,27,19,82,55,25,30.23,29.83,30,11,31,0.00
2013-5-4,46,43,40,39,34,26,92,70,52,29.95,29.75,34,14,34,0.00
2013-5-5,62,50,42,49,44,39,97,81,58,30.00,29.88,20,8,20,0.00
2013-5-6,67,53,40,52,47,40,100,83,58,29.97,29.83,12,3,13,0.00
2013-5-7,73,62,51,55,51,45,91,70,46,29.87,29.70,27,8,27,0.02
2013-5-8,77,66,57,63,57,53,96,75,53,29.79,29.58,41,11,41,0.47
2013-5-9,72,61,54,58,55,52,99,84,55,29.81,29.63,35,6,35,0.26
2013-5-10,71,59,54,55,51,45,95,77,41,29.91,29.79,22,8,22,0.00
2013-5-11,67,58,51,49,38,27,87,51,23,30.08,29.87,31,12,31,0.00
2013-5-12,68,55,42,46,38,29,84,53,37,30.09,29.88,22,8,22,0.04
2013-5-13,83,64,44,58,50,41,93,63,30,29.92,29.68,22,8,22,0.00
2013-5-14,93,77,63,57,50,43,64,41,19,29.68,29.52,41,19,42,0.00
2013-5-15,84,73,63,64,57,53,84,59,39,29.62,29.54,35,15,38,0.00
2013-5-16,79,67,60,65,60,57,100,82,50,29.67,29.55,18,6,18,0.00
2013-5-17,83,71,58,64,60,57,96,73,47,29.68,29.57,20,6,21,0.00
2013-5-18,85,73,64,71,67,58,96,81,59,29.64,29.39,39,12,46,0.14
2013-5-19,81,69,58,70,60,49,93,73,46,29.53,29.23,35,10,48,0.34
2013-5-20,76,64,54,62,56,46,93,76,53,29.58,29.42,20,7,20,0.00
2013-5-21,73,61,51,50,48,44,88,64,38,29.62,29.52,26,9,26,0.00
2013-5-22,74,61,49,53,49,44,89,65,44,29.79,29.60,24,8,24,0.00
2013-5-23,58,53,50,51,49,48,92,86,75,29.93,29.79,22,7,22,0.00
2013-5-24,76,65,54,65,57,51,94,77,60,30.00,29.79,21,12,27,0.00
2013-5-25,83,74,68,66,64,60,92,71,51,29.85,29.68,29,15,39,0.00
2013-5-26,83,74,67,69,66,63,89,77,59,29.75,29.56,28,16,37,0.00
2013-5-27,85,75,66,72,67,62,87,76,57,29.56,29.28,32,17,45,0.00
2013-5-28,89,78,70,73,68,65,92,72,54,29.48,29.29,37,14,37,0.12
2013-5-29,82,72,62,70,65,54,100,77,53,29.44,29.24,48,20,49,1.01
2013-5-30,78,65,58,62,59,53,100,82,51,29.49,29.36,29,8,30,0.95
2013-5-31,84,74,66,68,58,46,98,64,28,29.54,29.37,19,5,19,0.01
2013-6-1,71,63,54,58,50,46,79,63,52,29.87,29.53,29,12,29,0.00
2013-6-2,71,60,48,49,46,43,89,62,38,29.95,29.79,22,7,26,0.00
2013-6-3,70,56,51,54,50,48,95,82,55,29.81,29.72,24,10,24,0.00
2013-6-4,87,73,66,68,63,60,93,73,40,29.70,29.49,18,8,26,0.01
2013-6-5,71,65,59,66,59,53,100,82,57,29.84,29.66,26,10,36,0.79
2013-6-6,77,63,53,57,52,46,96,71,36,29.83,29.73,18,6,18,0.00
2013-6-7,78,67,54,57,53,49,89,63,39,29.82,29.67,13,3,13,0.00
2013-6-8,82,69,60,64,58,54,96,71,45,29.68,29.44,39,14,44,0.54
2013-6-9,87,72,56,63,57,49,98,65,27,29.70,29.58,22,7,22,0.00
2013-6-10,94,77,60,72,61,51,83,59,41,29.66,29.47,26,7,26,0.00
2013-6-11,96,85,71,65,60,55,67,44,26,29.59,29.44,40,17,40,0.00
2013-6-12,96,84,72,69,65,58,72,55,31,29.74,29.43,38,15,41,0.00
2013-6-13,87,72,59,65,58,54,83,63,41,29.86,29.71,24,9,25,0.00
2013-6-14,83,74,71,70,66,63,83,76,63,29.71,29.64,20,8,20,0.00
2013-6-15,90,78,71,70,64,61,86,63,39,29.74,29.56,25,10,35,0.04
2013-6-16,91,78,69,69,66,58,88,68,34,29.74,29.63,17,7,21,0.00
2013-6-17,82,72,66,69,66,63,96,82,56,29.77,29.52,26,8,31,0.14
2013-6-18,91,76,66,67,62,47,93,66,24,29.81,29.69,23,6,36,0.01
2013-6-19,88,77,63,69,62,58,91,64,40,29.76,29.65,26,9,26,0.00
2013-6-20,94,80,69,71,68,64,91,67,40,29.69,29.52,38,15,38,0.00
2013-6-21,96,84,76,70,67,63,70,58,35,29.63,29.55,36,16,36,0.00
2013-6-22,94,83,76,70,65,60,71,55,35,29.64,29.50,36,17,38,0.00
2013-6-23,95,82,74,69,65,59,77,59,33,29.60,29.50,29,11,31,0.00
2013-6-24,91,82,76,68,66,60,72,57,37,29.60,29.46,45,18,47,0.00
2013-6-25,97,85,75,71,67,56,79,57,32,29.60,29.34,51,20,51,0.16
2013-6-26,102,87,72,72,66,54,94,56,22,29.62,29.49,18,7,19,0.00
2013-6-27,105,86,74,74,70,57,91,62,27,29.73,29.52,38,7,38,0.00
2013-6-28,92,78,67,68,61,48,96,64,26,29.80,29.68,26,7,26,0.00
2013-6-29,88,77,62,59,52,45,80,46,25,29.75,29.67,33,11,34,0.00
2013-6-30,81,71,59,57,52,43,86,54,28,29.86,29.72,29,10,29,0.00
2013-7-1,82,70,55,54,48,37,87,50,25,29.96,29.86,24,7,24,0.00
2013-7-2,84,69,57,54,49,42,77,52,25,29.94,29.83,22,5,22,0.00
2013-7-3,87,73,62,54,49,42,66,45,21,29.88,29.71,20,6,22,0.00
2013-7-4,90,75,60,56,51,44,71,46,21,29.76,29.64,21,8,22,0.00
2013-7-5,92,80,69,60,56,52,72,47,27,29.68,29.57,38,14,38,0.01
2013-7-6,87,79,75,65,62,56,64,57,44,29.61,29.55,38,16,40,0.00
2013-7-7,99,85,76,64,61,54,62,46,23,29.66,29.58,38,19,38,0.00
2013-7-8,86,86,86,62,62,62,46,46,46,29.66,29.66,27,14,29,0.00
2013-7-9,106,88,73,68,65,58,85,50,21,29.76,29.53,25,12,39,0.24
2013-7-10,92,81,69,71,67,60,96,65,37,29.79,29.69,22,9,22,0.00
2013-7-11,89,75,68,70,65,62,96,72,47,29.88,29.68,30,10,30,0.39
2013-7-12,99,82,70,69,64,61,75,57,30,29.73,29.61,24,11,28,0.00
2013-7-13,97,85,77,71,69,67,74,60,41,29.70,29.60,26,11,26,0.00
2013-7-14,87,76,70,70,67,58,96,77,39,29.86,29.64,27,7,27,0.34
2013-7-15,86,72,64,72,63,58,92,74,42,29.94,29.86,26,5,26,0.24
2013-7-16,89,76,65,67,63,60,92,68,39,30.03,29.93,19,6,19,0.00
2013-7-17,91,79,69,72,67,65,96,71,44,30.07,29.93,16,4,18,0.00
2013-7-18,92,79,70,70,67,60,93,68,36,29.94,29.73,35,11,35,0.00
2013-7-19,96,82,72,68,65,61,82,61,33,29.76,29.60,28,11,28,0.01
2013-7-20,96,78,71,71,67,59,97,73,32,29.69,29.54,26,6,26,0.67
2013-7-21,86,76,70,72,70,67,98,81,57,29.67,29.54,18,4,18,0.05
2013-7-22,94,80,72,74,70,65,99,75,45,29.59,29.51,35,8,35,0.00
2013-7-23,93,77,70,68,66,62,88,70,37,29.75,29.56,25,9,28,0.01
2013-7-24,88,75,64,67,61,52,92,67,31,29.83,29.70,17,6,17,0.00
2013-7-25,80,72,69,72,66,60,97,81,65,29.83,29.75,21,5,21,0.39
2013-7-26,85,73,66,69,64,55,100,77,41,29.87,29.75,21,7,24,0.22
2013-7-27,70,63,59,59,56,52,94,78,55,29.95,29.79,16,5,16,0.05
2013-7-28,64,61,56,64,60,54,100,96,80,29.85,29.78,14,5,16,1.33
2013-7-29,72,68,63,72,67,61,100,97,85,29.80,29.68,18,6,18,1.88
2013-7-30,78,72,69,73,69,67,100,92,72,29.88,29.74,14,4,14,0.01
2013-7-31,88,74,65,73,68,65,100,82,48,29.92,29.82,10,1,10,0.01
2013-8-1,89,78,67,70,67,62,96,72,42,29.88,29.61,19,4,21,0.00
2013-8-2,77,76,74,67,66,65,80,72,67,29.61,29.58,29,17,30,0.02
2013-8-4,80,75,70,75,72,70,100,91,73,29.85,29.74,16,5,30,0.79
2013-8-5,86,76,71,75,72,66,100,88,63,29.76,29.56,22,5,31,0.05
2013-8-6,91,80,68,75,70,66,96,75,48,29.66,29.53,9,3,14,0.02
2013-8-7,86,76,70,75,71,67,97,84,64,29.72,29.55,21,6,33,0.14
2013-8-8,73,69,67,67,64,61,97,84,69,29.79,29.64,14,7,20,0.29
2013-8-9,78,71,67,66,62,51,94,74,53,29.92,29.76,12,4,17,0.00
2013-8-10,85,74,62,67,64,60,97,73,45,29.97,29.83,10,3,11,1.29
2013-8-11,86,76,66,70,66,63,95,75,50,29.89,29.76,16,5,17,0.00
2013-8-12,79,71,66,70,68,64,99,89,70,29.82,29.74,27,5,30,0.48
2013-8-13,78,72,66,71,67,61,98,86,66,29.91,29.78,12,4,14,0.10
2013-8-14,81,70,61,63,61,55,98,74,44,29.95,29.82,15,4,17,0.00
2013-8-15,82,69,63,69,62,60,96,81,59,29.85,29.69,27,8,29,0.21
2013-8-16,80,69,62,66,63,61,100,83,55,29.91,29.80,13,4,14,0.01
2013-8-17,68,63,61,61,60,59,94,90,78,29.95,29.91,12,7,13,0.00
2013-8-18,83,71,60,64,60,56,89,69,45,29.92,29.79,19,8,19,0.00
2013-8-19,87,75,65,68,64,62,90,71,49,29.85,29.71,26,8,26,0.00
2013-8-20,90,78,68,68,65,62,87,66,42,29.79,29.70,28,12,28,0.00
2013-8-21,93,78,67,67,65,62,90,67,39,29.78,29.71,29,11,29,0.00
2013-8-22,90,80,69,68,65,57,84,63,33,29.83,29.72,26,10,26,0.00
2013-8-23,91,80,70,72,69,67,93,72,48,29.80,29.69,24,10,24,0.00
2013-8-24,94,83,73,70,69,66,87,65,41,29.82,29.73,31,12,31,0.00
2013-8-25,94,83,74,70,69,66,84,64,41,29.89,29.80,29,11,29,0.00
2013-8-26,94,83,74,69,67,64,86,61,38,29.87,29.76,30,13,32,0.00
2013-8-27,94,82,72,67,64,55,82,58,28,29.79,29.71,30,13,32,0.00
2013-8-28,91,78,68,71,68,64,93,73,43,29.79,29.72,19,8,20,0.00
2013-8-29,98,84,73,71,66,59,85,59,29,29.75,29.66,24,9,27,0.00
2013-8-30,102,86,73,69,64,56,74,51,24,29.70,29.57,20,8,22,0.00
2013-8-31,99,85,73,75,70,63,92,63,35,29.63,29.52,17,7,19,0.00
2013-9-1,88,79,70,71,65,54,80,62,35,29.77,29.49,26,9,26,0.00
2013-9-2,84,72,58,60,58,55,92,63,40,29.87,29.77,16,4,16,0.00
2013-9-3,90,74,60,62,58,54,87,60,31,29.87,29.76,13,5,13,0.00
2013-9-4,89,76,62,61,58,53,83,57,31,29.92,29.80,16,5,16,0.00
2013-9-5,92,78,66,65,62,59,81,59,34,29.92,29.82,16,6,17,0.00
2013-9-6,97,81,69,66,63,57,80,57,27,29.85,29.68,20,7,20,0.00
2013-9-7,101,86,73,66,64,56,76,51,23,29.71,29.61,22,10,22,0.00
2013-9-8,100,86,75,65,62,57,65,46,24,29.65,29.55,26,9,26,0.00
2013-9-9,94,83,72,64,58,51,65,45,25,29.66,29.58,35,14,38,0.00
2013-9-10,94,83,73,64,60,56,64,47,31,29.79,29.64,37,15,37,0.00
2013-9-11,93,80,71,70,62,57,94,57,32,29.88,29.75,30,8,30,0.01
2013-9-12,78,72,68,71,68,60,100,89,70,29.95,29.85,16,4,16,0.24
2013-9-13,74,67,60,60,52,46,80,60,38,29.97,29.82,16,6,16,0.00
2013-9-14,82,70,57,62,56,51,80,63,42,29.84,29.65,21,8,22,0.00
2013-9-15,84,72,62,68,62,58,85,71,52,29.94,29.65,33,11,33,0.00
2013-9-16,62,61,59,62,59,57,100,95,84,30.01,29.91,22,9,22,0.04
2013-9-17,83,71,62,70,66,62,100,86,58,29.95,29.64,29,10,29,1.18
2013-9-18,92,80,69,67,64,59,87,62,35,29.68,29.48,41,18,43,0.00
2013-9-19,88,76,65,67,62,55,76,63,46,29.79,29.52,32,14,34,0.00
2013-9-20,76,64,55,54,49,44,89,60,33,29.93,29.77,19,6,19,0.00
2013-9-21,84,68,54,54,49,42,82,55,23,29.81,29.64,14,5,17,0.00
2013-9-22,80,68,56,53,49,44,84,55,29,29.70,29.56,28,12,29,0.00
2013-9-23,79,66,53,53,50,46,83,57,33,29.58,29.43,34,14,34,0.00
2013-9-24,75,67,58,56,54,52,79,64,49,29.69,29.50,34,14,34,0.00
2013-9-25,83,67,51,60,54,50,97,68,32,29.72,29.49,20,8,27,0.00
2013-9-26,91,77,63,61,56,52,79,52,27,29.52,29.44,23,16,36,0.00
2013-9-27,87,78,70,64,58,55,61,51,38,29.59,29.48,35,15,36,0.00
2013-9-28,76,63,53,66,49,40,93,63,34,29.90,29.44,34,11,36,0.21
2013-9-29,77,61,49,47,42,34,77,53,23,29.90,29.70,16,4,17,0.00
2013-9-30,82,65,50,53,49,45,90,60,28,29.71,29.55,25,8,25,0.00
2013-10-1,86,70,58,62,54,50,78,58,36,29.71,29.57,22,8,22,0.00
2013-10-2,84,72,65,68,64,60,97,77,51,29.71,29.57,25,9,28,0.00
2013-10-3,88,76,64,67,65,61,94,70,45,29.58,29.39,34,12,38,0.00
2013-10-4,89,73,50,67,57,32,82,58,28,29.81,29.40,44,19,48,0.02
2013-10-5,61,51,45,33,31,29,62,47,31,29.91,29.77,34,14,34,0.00
2013-10-6,69,54,44,38,31,18,66,44,14,29.88,29.76,31,13,31,0.00
2013-10-7,76,58,41,39,35,28,76,45,21,29.99,29.83,19,8,21,0.00
2013-10-8,78,63,55,49,41,38,65,47,26,29.83,29.68,39,15,39,0.00
2013-10-9,81,64,54,54,49,45,77,60,29,29.75,29.68,34,13,34,0.00
2013-10-10,82,67,58,58,54,52,80,66,41,29.74,29.51,30,12,32,0.00
2013-10-11,68,66,64,57,56,55,76,70,63,29.53,29.45,32,16,36,0.00
2013-10-12,69,57,45,44,37,30,82,50,25,30.06,29.71,19,6,19,0.00
2013-10-13,71,58,41,39,36,28,80,47,22,30.16,29.97,29,10,29,0.00
2013-10-14,64,61,55,60,52,38,96,75,40,29.97,29.53,31,15,35,0.15
2013-10-15,59,50,43,48,38,34,83,64,42,29.97,29.72,29,12,29,0.00
2013-10-16,56,48,40,37,34,29,83,61,37,29.98,29.83,18,6,20,0.00
2013-10-17,66,50,38,41,37,30,87,63,28,29.91,29.75,21,8,21,0.00
2013-10-18,43,37,32,36,34,30,100,89,74,30.05,29.88,21,5,21,0.34
2013-10-19,65,47,33,40,36,32,100,69,31,29.96,29.68,28,11,28,0.04
2013-10-20,69,54,45,43,37,34,68,55,29,29.80,29.60,24,10,24,0.00
2013-10-21,61,50,38,39,35,30,87,59,35,29.96,29.80,21,6,21,0.00
2013-10-22,66,54,42,43,38,34,78,57,34,29.94,29.75,28,10,28,0.00
2013-10-23,68,50,36,42,37,33,90,64,37,30.00,29.80,28,6,28,0.00
2013-10-24,51,43,37,38,31,22,89,63,33,30.26,30.00,17,5,17,0.00
2013-10-25,58,46,35,39,28,22,72,52,27,30.25,29.92,25,9,30,0.00
2013-10-26,61,51,43,43,32,22,88,53,23,30.03,29.86,24,9,25,0.00
2013-10-27,69,49,33,33,29,24,76,49,25,29.99,29.70,28,9,28,0.00
2013-10-28,63,55,43,54,47,31,95,77,47,29.85,29.71,24,10,24,0.00
2013-10-29,68,58,52,67,56,48,100,93,77,29.80,29.65,27,9,27,0.44
2013-10-30,52,50,49,52,50,46,100,98,89,29.77,29.55,14,4,16,0.13
2013-10-31,63,51,44,48,41,33,97,71,34,29.58,29.41,28,8,30,0.05
2013-11-1,46,46,44,36,36,35,69,68,66,29.56,29.53,10,7,11,0.00
2013-11-2,62,46,34,33,30,25,81,56,25,30.10,29.91,12,5,17,0.00
2013-11-3,63,52,43,38,34,30,64,51,36,29.92,29.52,49,20,49,0.00
2013-11-4,62,54,48,43,40,37,78,62,44,29.88,29.51,44,14,44,0.00
2013-11-5,60,51,37,58,48,33,100,91,72,29.91,29.59,32,12,32,0.32
2013-11-6,45,37,33,34,32,30,88,81,63,30.17,29.90,25,8,25,0.00
2013-11-7,59,44,32,36,33,28,89,66,36,30.29,30.08,16,6,16,0.00
2013-11-8,67,53,40,35,32,28,78,48,25,30.08,29.60,41,21,51,0.00
2013-11-9,50,44,40,35,34,34,79,69,55,29.91,29.73,25,6,26,0.00
2013-11-10,62,50,38,49,38,32,84,66,42,30.20,29.99,16,9,24,0.00
2013-11-11,52,42,27,51,38,11,99,85,50,30.55,29.94,21,11,32,0.01
2013-11-12,37,25,16,13,10,4,81,54,27,30.78,30.52,16,5,25,0.00
2013-11-13,52,38,22,27,19,12,66,48,31,30.52,29.90,37,18,41,0.00
2013-11-14,56,44,37,32,25,16,69,47,35,29.90,29.73,36,14,36,0.00
2013-11-15,59,47,32,46,36,28,86,68,47,29.73,29.38,39,11,39,0.00
2013-11-16,74,62,54,51,44,29,81,56,28,29.38,29.07,46,19,46,0.00
2013-11-17,64,54,39,46,28,10,69,39,13,29.95,29.07,44,17,44,0.00
2013-11-18,59,44,32,29,24,18,77,49,20,30.12,29.90,17,6,17,0.00
2013-11-19,62,50,39,33,27,24,62,42,25,30.01,29.62,37,13,40,0.00
2013-11-20,64,54,48,47,36,26,83,53,37,29.69,29.53,34,13,36,0.00
2013-11-21,52,32,22,45,28,17,91,83,78,30.42,29.69,30,13,32,0.06
2013-11-22,28,23,18,17,14,11,80,66,49,30.58,30.41,26,8,28,0.00
2013-11-23,28,25,16,19,14,8,72,63,48,30.67,30.50,21,7,22,0.00
2013-11-24,28,22,15,13,8,1,80,57,32,30.61,30.12,26,5,27,0.00
2013-11-25,39,30,26,26,20,12,86,67,55,30.12,30.03,24,8,26,0.00
2013-11-26,37,28,20,24,15,5,85,60,27,30.32,30.08,31,9,31,0.01
2013-11-27,39,24,12,21,11,5,74,59,34,30.32,29.94,34,7,34,0.00
2013-11-28,38,30,24,23,21,18,82,68,51,30.30,29.94,21,8,26,0.00
2013-11-29,55,37,20,30,24,15,83,62,34,30.30,29.95,31,8,31,0.00
2013-11-30,58,43,29,35,31,25,88,64,39,29.97,29.88,21,5,22,0.00
2013-12-1,60,43,27,38,33,24,94,69,40,29.93,29.64,13,2,16,0.00
2013-12-2,64,48,36,38,33,30,79,59,29,29.64,29.36,21,9,21,0.00
2013-12-3,69,49,38,38,34,29,80,59,23,29.41,29.27,21,7,21,0.00
2013-12-4,38,28,23,34,25,17,94,88,77,29.69,29.37,26,12,28,0.01
2013-12-6,16,12,5,0,-6,-9,60,44,33,30.56,30.28,14,8,22,0.00
2013-12-7,19,10,0,6,-2,-7,74,57,38,30.61,30.16,11,5,14,0.00
2013-12-8,21,18,9,18,13,4,90,81,52,30.15,29.83,12,5,17,0.00
2013-12-9,18,10,4,6,2,-3,86,70,54,30.32,30.09,12,4,21,0.00
2013-12-10,42,26,11,18,10,3,70,54,29,30.20,29.96,13,8,20,0.00
2013-12-11,26,20,14,20,7,-3,78,57,30,30.54,30.05,18,8,26,0.00
2013-12-12,48,30,15,21,13,1,75,50,30,30.42,29.91,22,12,27,0.00
2013-12-13,48,37,28,34,28,21,82,72,57,29.91,29.59,26,9,26,0.00
2013-12-14,34,26,20,23,18,15,83,73,52,30.12,29.82,27,9,27,0.00
2013-12-15,59,40,22,25,22,17,81,52,25,30.06,29.82,22,12,24,0.00
2013-12-16,62,45,33,28,23,20,65,44,23,29.96,29.81,16,7,17,0.00
2013-12-17,53,39,24,30,23,18,89,57,27,30.19,29.96,22,7,22,0.00
2013-12-18,66,48,35,36,27,20,56,45,24,30.00,29.51,37,18,40,0.00
2013-12-19,58,47,21,45,38,16,85,70,54,29.67,29.39,30,10,32,0.00
2013-12-20,21,18,14,16,12,10,89,77,67,29.90,29.66,25,6,28,0.00
2013-12-21,24,22,20,21,16,12,93,79,69,29.78,29.54,20,7,20,0.00
2013-12-22,25,20,12,21,16,9,93,87,82,30.24,29.70,19,6,20,0.05
2013-12-23,16,11,6,10,7,2,87,82,78,30.52,30.24,13,3,13,0.00
2013-12-24,30,20,11,29,18,7,98,90,82,30.41,29.99,27,9,30,0.00
2013-12-25,43,31,22,36,26,19,99,84,54,30.22,30.11,17,7,17,0.13
2013-12-26,42,33,25,28,23,18,76,68,57,30.18,30.02,26,10,26,0.00
2013-12-27,47,37,25,31,25,17,81,64,43,30.17,29.97,24,9,25,0.00
2013-12-28,47,39,30,34,30,25,82,68,52,29.97,29.65,36,14,37,0.00
2013-12-29,30,16,10,25,2,-5,82,55,37,30.26,29.90,33,10,37,0.00
2013-12-30,37,23,9,23,10,-3,69,58,49,30.18,30.03,25,8,25,0.00
2013-12-31,51,37,23,28,24,17,81,61,38,30.16,29.81,45,13,45,0.00
2014-1-1,36,17,8,27,13,2,89,81,68,30.29,29.80,29,10,32,0.00
2014-1-2,26,14,3,16,8,-2,85,76,63,30.33,30.23,12,4,13,0.01